User: anonymous
Location: Santa Barbara
(34.4500°N, 119.7700°W)
Time: 16:03:10
(UTC-07:00)
Language:

Cosmos 1892 Rocket - Orbit

View from above orbital plane
View from above orbital plane
View from above satellite
View from above satellite

Ground track
Ground track

The orbit data is extracted from the following two-line orbital elements,

1 18422U 87088B   14206.29898722  .00000137  00000-0  14160-4 0  3001
2 18422 082.5109 087.9009 0018597 325.8970 172.3468 14.82398802445055
Epoch (UTC): 25 July 2014 07:10:32
Eccentricity: 0.0018597
inclination: 82.5109°
perigee height: 609 km
apogee height: 635 km
right ascension of ascending node: 87.9009°
argument of perigee: 325.8970°
revolutions per day: 14.82398802
mean anomaly at epoch: 172.3468°
orbit number at epoch: 44505

The dashed part of the orbit path shows where the satellite is in the earth's shadow,  

DLR